Time,TemperatureF,DewpointF,PressureIn,WindDirection,WindDirectionDegrees,WindSpeedMPH,WindSpeedGustMPH,Humidity,HourlyPrecipIn,Conditions,Clouds,dailyrainin,SoftwareType,DateUTC
2013-07-15 00:05:00,51.9,51.9,29.95,South,178,0.0,0.0,100,0.00,,,0.00,Wunderground v.1.15,2013-07-15 07:05:00,
2013-07-15 00:35:00,51.1,51.1,29.95,South,178,0.0,0.0,100,0.00,,,0.00,Wunderground v.1.15,2013-07-15 07:35:00,
2013-07-15 01:05:00,50.4,50.4,29.95,South,178,0.0,0.0,100,0.00,,,0.00,Wunderground v.1.15,2013-07-15 08:05:00,
2013-07-15 01:35:00,49.6,49.6,29.95,South,178,0.0,0.0,100,0.00,,,0.00,Wunderground v.1.15,2013-07-15 08:35:00,
2013-07-15 02:05:00,48.8,48.8,29.95,South,178,0.0,0.0,100,0.00,,,0.00,Wunderground v.1.15,2013-07-15 09:05:00,
2013-07-15 02:35:00,47.9,47.9,29.94,South,178,0.0,0.0,100,0.00,,,0.00,Wunderground v.1.15,2013-07-15 09:35:00,
2013-07-15 03:05:00,47.0,47.0,29.94,South,178,0.0,0.0,100,0.00,,,0.00,Wunderground v.1.15,2013-07-15 10:05:00,
2013-07-15 03:35:00,46.5,46.5,29.94,South,178,0.0,0.0,100,0.00,,,0.00,Wunderground v.1.15,2013-07-15 10:35:00,
2013-07-15 04:05:00,46.2,46.2,29.94,South,178,0.0,0.0,100,0.00,,,0.00,Wunderground v.1.15,2013-07-15 11:05:00,
2013-07-15 04:35:00,46.1,46.1,29.94,South,178,0.0,0.0,100,0.00,,,0.00,Wunderground v.1.15,2013-07-15 11:35:00,
2013-07-15 05:05:00,45.5,45.5,29.94,South,178,0.0,0.0,100,0.00,,,0.00,Wunderground v.1.15,2013-07-15 12:05:00,
2013-07-15 05:35:00,46.1,46.1,29.94,South,178,0.0,0.0,100,0.00,,,0.00,Wunderground v.1.15,2013-07-15 12:35:00,
2013-07-15 06:05:00,46.2,46.2,29.94,South,178,0.0,0.0,100,0.00,,,0.00,Wunderground v.1.15,2013-07-15 13:05:00,
2013-07-15 06:35:00,48.0,48.0,29.94,South,178,0.0,0.0,100,0.00,,,0.00,Wunderground v.1.15,2013-07-15 13:35:00,
2013-07-15 07:05:00,51.3,51.3,29.94,South,178,0.0,0.0,100,0.00,,,0.00,Wunderground v.1.15,2013-07-15 14:05:00,
2013-07-15 07:35:00,55.1,55.1,29.94,South,174,0.0,0.0,100,0.00,,,0.00,Wunderground v.1.15,2013-07-15 14:35:00,
2013-07-15 08:05:00,-999.9,-99.9,29.93,North,32767,-999.0,0.0,255,-99.99,,,0.00,Wunderground v.1.15,2013-07-15 15:05:00,
2013-07-15 08:35:00,60.7,-99.9,29.93,South,175,0.0,0.0,255,0.00,,,0.00,Wunderground v.1.15,2013-07-15 15:35:00,
2013-07-15 09:35:00,64.5,59.6,29.92,South,174,0.0,0.0,84,0.00,,,0.00,Wunderground v.1.15,2013-07-15 16:35:00,
2013-07-15 10:05:00,65.6,60.3,29.92,South,174,0.0,0.0,83,0.00,,,0.00,Wunderground v.1.15,2013-07-15 17:05:00,
2013-07-15 10:35:00,66.6,60.9,29.91,SSE,168,0.0,0.0,82,0.00,,,0.00,Wunderground v.1.15,2013-07-15 17:35:00,
2013-07-15 11:35:00,67.6,61.2,29.89,SSE,151,0.0,0.0,80,0.00,,,0.00,Wunderground v.1.15,2013-07-15 18:35:00,
2013-07-15 12:05:00,68.1,61.7,29.89,SSE,151,0.0,0.0,80,0.00,,,0.00,Wunderground v.1.15,2013-07-15 19:05:00,
2013-07-15 13:35:00,67.9,61.1,29.86,NW,325,0.0,0.0,79,0.00,,,0.00,Wunderground v.1.15,2013-07-15 20:35:00,
2013-07-15 14:05:00,68.1,61.3,29.85,West,270,0.0,0.0,79,0.00,,,0.00,Wunderground v.1.15,2013-07-15 21:05:00,
2013-07-15 14:35:00,67.3,59.1,29.84,South,169,0.0,0.0,75,0.00,,,0.00,Wunderground v.1.15,2013-07-15 21:35:00,
2013-07-15 15:05:00,67.4,58.8,29.83,SE,127,0.0,0.0,74,0.00,,,0.00,Wunderground v.1.15,2013-07-15 22:05:00,
2013-07-15 15:35:00,69.6,57.7,29.81,South,169,0.0,0.0,66,0.00,,,0.00,Wunderground v.1.15,2013-07-15 22:35:00,
2013-07-15 16:35:00,69.8,57.9,29.79,SSE,155,0.0,0.0,66,0.00,,,0.00,Wunderground v.1.15,2013-07-15 23:35:00,
2013-07-15 17:05:00,68.9,57.9,29.77,East,96,0.0,0.0,68,0.00,,,0.00,Wunderground v.1.15,2013-07-16 00:05:00,
2013-07-15 18:05:00,68.4,56.6,29.75,SE,141,0.0,0.0,66,0.00,,,0.00,Wunderground v.1.15,2013-07-16 01:05:00,
2013-07-15 18:35:00,67.8,55.2,29.75,NE,34,0.0,0.0,64,0.00,,,0.00,Wunderground v.1.15,2013-07-16 01:35:00,
2013-07-15 19:35:00,63.7,55.3,29.75,SE,138,0.0,0.0,74,0.00,,,0.00,Wunderground v.1.15,2013-07-16 02:35:00,
2013-07-15 20:35:00,59.2,56.3,29.76,South,184,0.0,0.0,90,0.00,,,0.00,Wunderground v.1.15,2013-07-16 03:35:00,
2013-07-15 21:05:00,57.6,55.6,29.76,South,184,0.0,0.0,93,0.00,,,0.00,Wunderground v.1.15,2013-07-16 04:05:00,
2013-07-15 21:35:00,56.3,55.2,29.76,South,184,0.0,0.0,96,0.00,,,0.00,Wunderground v.1.15,2013-07-16 04:35:00,
2013-07-15 22:05:00,55.3,54.5,29.76,South,184,0.0,0.0,97,0.00,,,0.00,Wunderground v.1.15,2013-07-16 05:05:00,
2013-07-15 22:35:00,54.4,53.8,29.76,South,184,0.0,0.0,98,0.00,,,0.00,Wunderground v.1.15,2013-07-16 05:35:00,
2013-07-15 23:05:00,53.6,53.3,29.77,South,184,0.0,0.0,99,0.00,,,0.00,Wunderground v.1.15,2013-07-16 06:05:00,
2013-07-15 23:35:00,52.9,52.9,29.77,South,184,0.0,0.0,100,0.00,,,0.00,Wunderground v.1.15,2013-07-16 06:35:00,